Regional Weather Roundup
Issued by NWS

Home | Current Version | Previous Version | Text Only | Print | Product List | Glossary Off
Versions: 1 2 3 4 5 6 7 8 9 10 11 12 13 14 15 16 17 18 19 20 21 22 23 24 25 26 27 28 29 30 31 32 33 34 35 36 37 38 39 40 41 42 43 44 45 46 47 48 49 50

000
ASUS45 KABQ 030210
RWRNM
NEW MEXICO REGIONAL WEATHER ROUNDUP
NATIONAL WEATHER SERVICE ALBUQUERQUE NM
800 PM MDT MON MAY 02 2016

NOTE: "FAIR" MEANS FEW OR NO CLOUDS BELOW 12,000 FEET AGL WITH NO
       SIGNIFICANT WEATHER OR OBSTRUCTIONS TO VISION.

      THIS PRODUCT IS RELEASED AS TWO VERSIONS.  ONE VERSION NEAR
      THE TOP OF THE HOUR CONTAINING PRELIMINARY DATA FROM ALBUQUERQUE
      AND OTHER STATIONS.  A FINAL VERSION WITH ADDITIONAL DATA IS
      ISSUED ABOUT 10 MINUTES AFTER THE HOUR.

NMZ501-503-504-510>518-030300-
NORTHWEST PLATEAU/NORTHCENTRAL MOUNTAINS

CITY           SKY/WX    TMP DP  RH WIND       PRES   REMARKS
FARMINGTON     FAIR      57  31  37 NW7       30.13S
LOS ALAMOS     FAIR      49  32  51 S3        30.20R
SANTA FE       FAIR      51  29  42 SW6       30.15S
TAOS           CLOUDY    52  30  43 CALM      30.18S
ANGEL FIRE     MOCLDY    44  30  57 W10       30.22S

$$
NMZ402-403-502-505>509-030300-
WESTCENTRAL MOUNTAINS/SOUTHWEST MOUNTAINS

CITY           SKY/WX    TMP DP  RH WIND       PRES   REMARKS
GALLUP         FAIR      53  35  50 N8        30.17R
GRANTS         RAIN      46  40  77 SW8       30.23R
SILVER CITY      N/A     61  27  27 SE6       30.14S

$$
NMZ407-409-411-412-030300-
SOUTHERN DESERTS

CITY           SKY/WX    TMP DP  RH WIND       PRES   REMARKS
LORDSBURG      FAIR      66  28  24 E8        30.04F
DEMING         FAIR      67  29  24 S5        30.08R
LAS CRUCES     FAIR      65  27  24 CALM      30.10S
HOLLOMAN AFB   FAIR      66  27  23 SE5       30.07F
ALAMOGORDO     FAIR      64  27  24 W3        30.10S
T OR C         FAIR      66  26  22 S7        30.08S

$$
NMZ519>523-030300-
CENTRAL VALLEYS/CENTRAL HIGHLANDS

CITY           SKY/WX    TMP DP  RH WIND       PRES   REMARKS
ALBUQUERQUE    MOCLDY    60  29  30 S7        30.14R
DOUBLE EAGLE   MOCLDY    55  34  44 CALM      30.16S
MORIARTY ARPT  FAIR      52  23  32 CALM      30.17S
CLINES CORNERS FAIR      47  26  44 W8        30.17R
BELEN          CLOUDY    60  29  31 NW3       30.14S
SOCORRO        CLOUDY    63  31  30 CALM      30.11S

$$
NMZ524>526-539-540-030300-
SOUTHCENTRAL MOUNTAINS

CITY           SKY/WX    TMP DP  RH WIND       PRES   REMARKS
RUIDOSO          N/A     48  32  53 SE10      30.21S

$$
NMZ527>531-030300-
NORTHEAST HIGHLANDS/NORTHEAST PLAINS

CITY           SKY/WX    TMP DP  RH WIND       PRES   REMARKS
LAS VEGAS      FAIR      48  32  53 S9        30.15R
RATON          FAIR      51  32  48 SW3       30.14S
CLAYTON        FAIR      50  37  61 E3        30.13R

$$
NMZ532>537-030300-
EASTCENTRAL PLAINS

CITY           SKY/WX    TMP DP  RH WIND       PRES   REMARKS
TUCUMCARI      FAIR      54  39  57 E8        30.10S
CANNON AFB     NOT AVBL
CLOVIS AIRPORT FAIR      54  37  54 E7        30.14S

$$
NMZ028-029-538-030300-
SOUTHEAST PLAINS

CITY           SKY/WX    TMP DP  RH WIND       PRES   REMARKS
ROSWELL        FAIR      58  32  37 S5        30.10F
ARTESIA        FAIR      64  34  32 CALM      30.11S
CARLSBAD       FAIR      63  34  33 CALM      30.09S
HOBBS          FAIR      59  32  36 SE7       30.13S


$$




USA.gov is the U.S. government's official web portal to all federal, state and local government web resources and services.